Lexington Weather

Lexington, Massachusetts, USA

55°F
12/4/2020 12:45pm 
  • Lexington Conditions: Partly cloudy
  • Temperature: 54.7°F / 12.6°CWarmer 1.5°F than last hour.
  • Dew Point: 35.4°FIncreased 2.3°Fsince last hour.
  • Relative Humidity: 48%Increased 2.0% since last hour.
  • Wind: Wind from WSW WSW 4 mph, 10-min avg: 3 mph, gust: 8 mph
  • Barometer: 29.91 inFalling 0.02  inHg/hr Falling Slowly
  • Visibility: 10 miles
  • Rain Today: 0.00 in
  •   
Southeast Middlesex County - Winter Storm Watch
 - SEE ALL NEARBY ALERTS -

Regional Weather Roundup
for Boston / Norton, MA

        
000
ASUS41 KBOX 041704
RWRBOX

REGIONAL WEATHER ROUNDUP
NATIONAL WEATHER SERVICE BOSTON/NORTON MA
1200 PM EST FRI DEC 04 2020

NOTE:  "FAIR" INDICATES FEW OR NO CLOUDS BELOW 12,000 FEET WITH NO 
SIGNIFICANT WEATHER AND/OR OBSTRUCTIONS TO VISIBILITY.

MAZALL-041800-
EASTERN MASSACHUSETTS
  
CITY           SKY/WX    TMP DP  RH WIND       PRES   REMARKS
BOSTON         PTSUNNY   56  29  35 SW12      29.98F                  
BEVERLY        CLOUDY    55  29  36 SW15G24   29.96F                  
LAWRENCE       PTSUNNY   55  28  35 SW10G18   29.97F                  
BEDFORD        MOSUNNY   55  29  36 SW14      29.96F                  
BLUE HILL        N/A     53  28  38 SW14G20   29.97F                  
NORWOOD        PTSUNNY   56  29  35 VRB7      29.98F                  
MARSHFIELD     PTSUNNY   57  34  41 SW12G18   30.00F                  
PLYMOUTH       PTSUNNY   56  34  43 SW13G22   30.01F                  
TAUNTON        CLOUDY    57  35  43 SW9       30.01F                  
NEW BEDFORD    PTSUNNY   57  43  59 SW15      30.02F                  
$$

MAZALL-041800-
CAPE COD AND THE ISLANDS
  
CITY           SKY/WX    TMP DP  RH WIND       PRES   REMARKS
FALMOUTH       MOSUNNY   55  43  62 SW17G29   30.03F                  
HYANNIS        CLOUDY    56  40  55 SW21G28   30.02F                  
CHATHAM        CLOUDY    54  46  74 SW9       30.06F                  
PROVINCETOWN   PTSUNNY   54  44  69 SW18G24   30.03F                  
NANTUCKET      MOSUNNY   58  48  69 SW17      30.07F                  
MARTHAS VNYRD  LGT RAIN  56  45  66 SW10G21   30.04F                  
$$
 
MAZALL-041800-
CENTRAL AND WESTERN MASSACHUSETTS
  
CITY           SKY/WX    TMP DP  RH WIND       PRES   REMARKS
WORCESTER      SUNNY     52  25  35 SW14      29.95F                  
FITCHBURG      CLOUDY    55  28  35 SW8G22    29.95F                  
ORANGE         CLOUDY    51  28  41 S10       29.95F                  
SPRINGFIELD    PTSUNNY   54  27  34 SW6       29.95F                  
WESTFIELD      MOSUNNY   55  28  35 S8        29.96F                  
NORTH ADAMS    CLOUDY    52  28  39 W13G18    29.93F                  
PITTSFIELD       N/A     49  26  41 SW12G18   29.92F                  
$$
 
RIZALL-041800-
RHODE ISLAND
  
CITY           SKY/WX    TMP DP  RH WIND       PRES   REMARKS
PROVIDENCE     NOT AVBL                                               
NEWPORT        MOSUNNY   54  43  66 VRB6G18   30.02F                  
BLOCK ISLAND   PTSUNNY   53  46  77 SW15      30.04F                  
SMITHFIELD     MOSUNNY   55  31  39 SW10      29.99F                  
WESTERLY       PTSUNNY   54  41  61 SW7       30.03F                  
$$
 
CTZALL-041800-
CONNECTICUT
  
CITY           SKY/WX    TMP DP  RH WIND       PRES   REMARKS
BRADLEY INTL   PTSUNNY   53  27  36 S14       29.98F                  
HARTFORD       PTSUNNY   54  29  38 S14       29.99F                  
BRIDGEPORT     NOT AVBL                                               
DANBURY        MOSUNNY   51  30  44 SW6       30.00F                  
GROTON         PTSUNNY   53  42  66 SW7       30.03F                  
NEW HAVEN      MOSUNNY   53  39  59 SW7       30.01F                  
CHESTER        FAIR      54  34  47 S12G17    30.01F                  
MERIDEN        MOSUNNY   52  33  48 S13G18    30.01F                  
WILLIMANTIC    PTSUNNY   55  27  34 S12       29.99F                  
OXFORD         MOSUNNY   50  33  52 SW8       30.00F                  
$$

MEZ002-015-021-024-NHZ003-005-008-011-012-014-VTZ005-008-041800-
NORTHERN NEW ENGLAND
  
CITY           SKY/WX    TMP DP  RH WIND       PRES   REMARKS
PORTLAND ME    PTSUNNY   49  26  41 S7        29.95F                  
BANGOR ME      CLOUDY    45  26  47 SW6       29.93F                  
CONCORD NH     PTSUNNY   52  25  35 S10       29.93F                  
MANCHESTER NH  PTSUNNY   52  23  32 S10       29.93F                  
NASHUA NH      PTSUNNY   53  27  36 CALM      29.95F                  
PORTSMOUTH NH  PTSUNNY   52  21  29 S9        29.94F                  
JAFFREY NH     PTSUNNY   49  24  37 SW10G16   29.92F                  
KEENE NH       MOSUNNY   49  23  36 SW13      29.94F                  
BURLINGTON VT  CLOUDY    44  29  55 S13G23    29.88F                  
MT. WASHINGTON FOG       19  19 100 W45G51      N/A  VSB 1/16WCI  -3  
$$

NYZ052-076-041800-
EASTERN NEW YORK
  
CITY           SKY/WX    TMP DP  RH WIND       PRES   REMARKS
ALBANY         PTSUNNY   45  26  47 SE6       29.94F                  
NEW YORK CITY  PTSUNNY   52  31  44 SW9       30.02F                  
$$
 
ANZALL-041800-
MARINE OBSERVATIONS
  
STATION/POSITION TIME  TEMP    WIND        PRES    VSBY  WAVE
                       AIR SEA DIR/SP/G                  HT/PER
                 (UTC) (F)     (DEG/KT/KT) (MB)    (MI)  (FT/S)
BOSTON BUOY      1640   52 50  200/ 10/ 12 1016.2F
BUZZARDS BAY     1600          230/ 19/ 21 1018.7F
NANTUCKET SOUND  1640      50  220/ 17/ 19   N/A
MASS BAY-STELLWA NOT AVBL
ISLE OF SHOALS   1600   48     210/ 20/ 21 1015.2F
S OF BLOCK IS    1626      56                N/A           7/ 7
$$

......................KEY.........................
  SKY/WX - SKY CONDITION/PRESENT WEATHER
  TMP    - TEMPERATURE IN FAHRENHEIT
  DWPT   - DEWPOINT IN FAHRENHEIT
  RH     - RELATIVE HUMIDITY IN PERCENT
  WIND   - DIRECTION AND SPEED IN MPH
  PRES   - MEAN SEA LEVEL PRESSURE IN INCHES OF HG
  WCI    - WIND CHILL INDEX
  VSB    - VISIBILITY IN MILES
  HX     - HEAT INDEX
  TC     - TEMPERATURE IN CELSIUS
  VRB    - VARIABLE WIND DIRECTION
  N/A    - NOT AVAILABLE
  
      

Other recent Regional Weather Roundups

Fri Dec 4, 11:04am

Fri Dec 4, 10:05am

Fri Dec 4, 9:04am

Fri Dec 4, 8:04am

Fri Dec 4, 7:04am

Fri Dec 4, 6:04am

Fri Dec 4, 5:04am

Fri Dec 4, 4:04am

Fri Dec 4, 3:04am

Fri Dec 4, 2:04am

Fri Dec 4, 1:04am

Fri Dec 4, 12:04am

Thu Dec 3, 11:04pm

Thu Dec 3, 10:04pm

Thu Dec 3, 9:04pm

Thu Dec 3, 8:04pm

Thu Dec 3, 7:04pm

Thu Dec 3, 6:04pm

Thu Dec 3, 5:04pm

Thu Dec 3, 4:05pm

Thu Dec 3, 3:04pm

Thu Dec 3, 2:04pm

Thu Dec 3, 1:04pm

Thu Dec 3, 12:04pm

Thu Dec 3, 11:04am

Thu Dec 3, 10:04am

Thu Dec 3, 9:04am

Thu Dec 3, 8:04am

Thu Dec 3, 7:04am

Thu Dec 3, 6:04am

Thu Dec 3, 5:04am

Thu Dec 3, 4:04am

Thu Dec 3, 3:04am

Thu Dec 3, 2:04am

Thu Dec 3, 1:04am

Thu Dec 3, 12:04am

Wed Dec 2, 11:04pm

Wed Dec 2, 10:04pm

Wed Dec 2, 9:04pm

Wed Dec 2, 8:04pm

Wed Dec 2, 7:04pm

Wed Dec 2, 6:05pm

Wed Dec 2, 5:04pm

Wed Dec 2, 4:05pm

Wed Dec 2, 3:05pm

Wed Dec 2, 2:04pm

Wed Dec 2, 1:04pm

Wed Dec 2, 12:04pm

Wed Dec 2, 11:04am

Wed Dec 2, 10:04am

Wed Dec 2, 9:05am

Wed Dec 2, 8:04am

Wed Dec 2, 7:04am

Wed Dec 2, 6:04am

Wed Dec 2, 5:04am

Wed Dec 2, 4:04am

Wed Dec 2, 3:04am

Wed Dec 2, 2:04am

Wed Dec 2, 1:04am

Wed Dec 2, 12:04am

Tue Dec 1, 11:04pm

Tue Dec 1, 10:04pm

Tue Dec 1, 9:04pm

Tue Dec 1, 8:04pm

Tue Dec 1, 7:04pm

Tue Dec 1, 6:05pm

Tue Dec 1, 5:04pm

Tue Dec 1, 4:05pm

Tue Dec 1, 3:04pm

Tue Dec 1, 2:04pm

Tue Dec 1, 12:04pm

Tue Dec 1, 11:04am

Tue Dec 1, 10:04am

Tue Dec 1, 9:04am

Tue Dec 1, 8:04am

Tue Dec 1, 7:04am

Tue Dec 1, 6:04am

Tue Dec 1, 5:05am

Tue Dec 1, 4:04am

Tue Dec 1, 3:04am

Tue Dec 1, 2:04am

Tue Dec 1, 1:04am

Tue Dec 1, 12:04am

Mon Nov 30, 11:04pm

Mon Nov 30, 10:04pm

Mon Nov 30, 9:04pm

Mon Nov 30, 8:04pm

Mon Nov 30, 7:05pm

Mon Nov 30, 6:04pm

Mon Nov 30, 5:05pm

Mon Nov 30, 4:04pm

Mon Nov 30, 3:05pm

Mon Nov 30, 2:05pm

Mon Nov 30, 1:04pm

Mon Nov 30, 12:05pm

Mon Nov 30, 11:04am

Mon Nov 30, 10:04am

Mon Nov 30, 9:04am

Mon Nov 30, 8:04am

Mon Nov 30, 7:05am

Mon Nov 30, 6:04am

Mon Nov 30, 5:05am

Mon Nov 30, 4:04am

Mon Nov 30, 3:04am

Mon Nov 30, 2:04am

Mon Nov 30, 1:04am

Mon Nov 30, 12:04am

Sun Nov 29, 11:04pm

Sun Nov 29, 10:04pm

Sun Nov 29, 9:04pm

Sun Nov 29, 8:04pm

Sun Nov 29, 7:04pm

Sun Nov 29, 6:04pm

Sun Nov 29, 5:04pm

Sun Nov 29, 4:05pm

Sun Nov 29, 3:04pm

Sun Nov 29, 2:04pm

Sun Nov 29, 1:04pm

Sun Nov 29, 12:04pm

Sun Nov 29, 11:04am

Sun Nov 29, 10:04am

Sun Nov 29, 9:04am

Sun Nov 29, 8:05am

Sun Nov 29, 7:04am

Sun Nov 29, 6:04am

Sun Nov 29, 5:04am

Sun Nov 29, 4:04am

Sun Nov 29, 3:04am

Sun Nov 29, 2:05am

Sun Nov 29, 1:04am

Sun Nov 29, 12:04am

Sat Nov 28, 11:04pm

Sat Nov 28, 10:04pm

Sat Nov 28, 9:04pm

Sat Nov 28, 8:04pm

Sat Nov 28, 7:04pm

Sat Nov 28, 6:04pm

Sat Nov 28, 5:04pm

Sat Nov 28, 4:04pm

Sat Nov 28, 3:04pm

Sat Nov 28, 2:04pm

Sat Nov 28, 1:04pm

Sat Nov 28, 12:04pm

Sat Nov 28, 11:04am

Sat Nov 28, 10:04am

Sat Nov 28, 9:04am

Sat Nov 28, 8:04am

Sat Nov 28, 7:04am

Sat Nov 28, 6:04am

Sat Nov 28, 5:04am

Sat Nov 28, 4:04am

Sat Nov 28, 3:05am

Sat Nov 28, 2:04am

Sat Nov 28, 1:04am

Sat Nov 28, 12:04am

Fri Nov 27, 11:05pm

Fri Nov 27, 10:04pm

Fri Nov 27, 9:04pm

Fri Nov 27, 8:04pm

Fri Nov 27, 7:04pm

Fri Nov 27, 6:04pm

Fri Nov 27, 5:04pm

Fri Nov 27, 4:05pm

Fri Nov 27, 3:05pm

Fri Nov 27, 2:05pm

Fri Nov 27, 1:04pm

Meta data:

ID: de1851b8-3d4a-425e-9a5c-f1de6420aa17
Link: https://api.weather.gov/products/de1851b8-3d4a-425e-9a5c-f1de6420aa17